Regional Weather Roundup
Issued by NWS

Home | Current Version | Previous Version | Text Only | Print | Product List | Glossary Off
Versions: 1 2 3 4 5 6 7 8 9 10 11 12 13 14 15 16 17 18 19 20 21 22 23 24 25 26 27 28 29 30 31 32 33 34 35 36 37 38 39 40 41 42 43 44 45 46 47 48 49 50

000
ASUS43 KBIS 222110
RWRND

NORTH DAKOTA REGIONAL WEATHER ROUNDUP
NATIONAL WEATHER SERVICE BISMARCK ND
300 PM CST SAT NOV 22 2014

NOTE: "FAIR" INDICATES FEW OR NO CLOUDS BELOW 12,000 FEET WITH NO
SIGNIFICANT WEATHER AND/OR OBSTRUCTIONS TO VISIBILITY.


NDZ001>003-009>011-017-222200-
NORTHWEST NORTH DAKOTA

CITY           SKY/WX    TMP DP  RH WIND       PRES   REMARKS
WILLISTON      CLOUDY    42  30  62 SW9       29.24S
MINOT          CLOUDY    41  29  62 E8        29.27F
MINOT AFB      CLOUDY    40  32  74 SE14      29.26F
$$

NDZ018>021-031>035-040>046-222200-
SOUTHWEST NORTH DAKOTA

CITY           SKY/WX    TMP DP  RH WIND       PRES   REMARKS
BISMARCK       CLOUDY    43  30  60 SW7       29.35F
DICKINSON      RAIN      40  35  83 W23G29    29.32R
GARRISON         N/A     42  31  64 S9        29.30F
HETTINGER ARPT CLOUDY    41  30  65 W9        29.38R
$$

NDZ004>008-012>016-024-026-027-054-222200-
NORTHEAST NORTH DAKOTA

CITY           SKY/WX    TMP DP  RH WIND       PRES   REMARKS
GRAND FORKS    CLOUDY    40  30  67 SE9       29.46F
GRND FRKS AFB  CLOUDY    41  30  65 SE9       29.45F
DEVILS LAKE    CLOUDY    39  27  60 SE10      29.37F
$$

NDZ022-023-025-028>030-036>039-047>053-222200-
SOUTHEAST NORTH DAKOTA

CITY           SKY/WX    TMP DP  RH WIND       PRES   REMARKS
FARGO          PTSUNNY   44  31  60 SE10      29.46F
JAMESTOWN      CLOUDY    43  28  55 SE10      29.38F
$$




USA.gov is the U.S. government's official web portal to all federal, state and local government web resources and services.